Regional Weather Roundup
Issued by NWS

Home | Current Version | Previous Version | Graphics & Text | Print | Product List | Glossary On
Versions: 1 2 3 4 5 6 7 8 9 10 11 12 13 14 15 16 17 18 19 20 21 22 23 24 25 26 27 28 29 30 31 32 33 34 35 36 37 38 39 40 41 42 43 44 45 46 47 48 49 50
000
ASUS45 KSLC 230210
RWRUT

UTAH REGIONAL WEATHER ROUNDUP
NATIONAL WEATHER SERVICE SALT LAKE CITY UT
800 PM MDT FRI AUG 22 2014

UTZ001>011-023>025-230300-

NORTHERN UTAH

CITY           SKY/WX    TMP DP  RH WIND       PRES   REMARKS
HILL AFB       LGT RAIN  57  52  82 E8        30.03S
LOGAN          RAIN      57  32  38 E10       30.05S
OGDEN          RAIN      59  54  83 E9        30.01R
PROVO AIRPORT  RAIN      63  54  72 MISG      30.00R
SALT LAKE CITY LGT RAIN  61  53  75 E7        30.02R
VERNAL         CLOUDY    65  55  70 NW5       29.96F
WENDOVER       MOCLDY    64  55  72 N10       29.94F
HEBER CITY     TSTM      59  48  67 N15G26    30.05R
WEST JORDAN    CLOUDY    61  61 100 NE5       30.05R

$$

UTZ012>022-026-027-230300-

SOUTHERN UTAH

CITY           SKY/WX    TMP DP  RH WIND       PRES   REMARKS
BRYCE CANYON   CLEAR     62  46  55 S9        30.16S
CEDAR CITY     CLEAR     71  43  36 SW16G24   30.01F
MILFORD        CLEAR     76  44  32 SW24G32   29.94S
MOAB/CYNLANDS  CLEAR     74  48  39 SE14      29.91F
PRICE          PTCLDY    65  53  65 E8        30.01S
ST GEORGE      CLOUDY    86  52  30 SW12      29.88S
KANAB            N/A     73  46  38 SW9       30.04S

$$

REGIONAL REPORTS     COLORADO/ARIZONA

CITY           SKY/WX    TMP DP  RH WIND       PRES   REMARKS
CRAIG, CO      CLOUDY    57  53  86 E7        30.07F
GRAND JUNCTION MOCLDY    64  56  75 SE10      30.00F
RIFLE          CLOUDY    66  51  58 W18       30.04R
MONTROSE       CLOUDY    63  56  78 SE8       30.11F
CORTEZ         MOCLDY    60  53  77 NE3       30.14S
PAGE, AZ       MOCLDY    82  47  29 S6        29.95F
GRAND CANYON   CLEAR     64  48  56 S8        30.18R
KINGMAN        CLEAR     79  50  36 SW13      29.98S
FLAGSTAFF      CLEAR     60  47  61 SW8       30.22S

$$

REGIONAL REPORTS    NEVADA/IDAHO/WYOMING

CITY           SKY/WX    TMP DP  RH WIND       PRES   REMARKS
LAS VEGAS, NV  PTCLDY    92  43  18 S18G26    29.76F
ELY            MOCLDY    59  51  75 S8G21     30.01S
ELKO           MOCLDY    70  32  24 CALM      29.97R
POCATELLO, ID  MOCLDY    55  53  93 N18G24    30.03R
BURLEY         PTCLDY    60  51  72 NE12      29.95F
EVANSTON, WY   LGT RAIN  48  46  93 N8G21     30.14S FOG
ROCK SPRINGS   CLOUDY    57  48  72 W5        30.09R

$$



USA.gov is the U.S. government's official web portal to all federal, state and local government web resources and services.